sat.trackr.live / text

‹ back to catalog

STARLINK-35493

NORAD 65928 · 2025-225U

PAYLOAD ACTIVE UNKNOWN

§ Identity

Operator
Country
US
Launch date
2025-10-08
Launch site
AFWTR
Launch vehicle
Mass (kg)
RCS (m²)

Purposes: comms

External: N2YO · Heavens-Above · Gunter

§ Orbital elements

Epoch: 2026-05-25T02:10:50.169216Z

Period
94.11 min
Inclination
53.1570°
Eccentricity
0.0001125
Mean motion
15.30204309 rev/d
Perigee alt
474.4 km
Apogee alt
476.0 km
Semi-major
6,853.3 km
B*
5.8618e-4
RAAN
170.9304°
Arg perigee
79.7935°
Mean anomaly
280.3193°
Rev number
3,610

§ Raw data

STARLINK-354931 65928U 25225U   26145.09085844  .00017044  00000+0  58618-3 0  99982 65928  53.1570 170.9304 0001125  79.7935 280.3193 15.30204309 36109

JSON: /api/v1/satellites/65928 · /tle

For live sub-satellite position, see the globe view (requires WebGL).

§ Visibility from observer

Set your observer location to see the next 7 days of passes ≥ 10°. The values pass through the URL so the page stays shareable.

No JS? Fill the form by hand. The geolocation button needs JavaScript.